Location: Del Oro Observatory
(38.3044°N, 104.8119°W)
Time: 01:29:09
(UTC-07:00)

Iridium 35 - Visible Passes

Search period start: 23 January 2017 00:00
Search period end: 02 February 2017 00:00
Orbit: 776 x 779 km, 86.4° (Epoch: 22 January)

Date Brightness Start Highest point End Pass type
(mag) Time Alt. Az. Time Alt. Az. Time Alt. Az.
23 Jan 6.6 04:06:16 31° E 04:06:16 31° E 04:10:32 10° SE visible
23 Jan 5.9 05:46:52 26° W 05:46:52 26° W 05:50:46 10° SW visible
23 Jan 8.0 18:40:17 10° W 18:42:18 12° WNW 18:44:20 10° NW visible
24 Jan 7.7 03:34:29 13° ESE 03:34:29 13° ESE 03:35:31 10° ESE visible
24 Jan 5.8 05:15:04 33° SW 05:15:04 33° SW 05:18:09 10° SSW visible
24 Jan 7.5 18:04:23 10° SW 18:08:27 23° WNW 18:12:33 10° NNW visible
25 Jan 6.7 04:43:06 22° S 04:43:06 22° S 04:44:55 10° S visible
26 Jan 7.6 04:11:02 10° SSE 04:11:02 10° SSE 04:11:07 10° SSE visible
27 Jan 7.8 18:05:39 10° WSW 18:08:45 16° WNW 18:11:52 10° NW visible
30 Jan 8.3 18:08:12 10° W 18:09:06 10° WNW 18:10:00 10° WNW visible
